Time,TemperatureF,DewpointF,PressureIn,WindDirection,WindDirectionDegrees,WindSpeedMPH,WindSpeedGustMPH,Humidity,HourlyPrecipIn,Conditions,Clouds,dailyrainin,SoftwareType,DateUTC
2013-01-20 00:04:00,37.0,30.0,29.82,South,174,0.0,2.0,75,0.00,,,0.01,,2013-01-20 05:04:00,
2013-01-20 00:12:00,37.0,30.0,29.82,South,174,0.0,2.0,75,0.00,,,0.01,,2013-01-20 05:12:00,
2013-01-20 00:22:00,37.0,30.0,29.82,South,174,0.0,2.0,75,0.00,,,0.01,,2013-01-20 05:22:00,
2013-01-20 00:33:00,38.0,31.0,29.80,SSW,210,0.0,0.0,75,0.00,,,0.01,,2013-01-20 05:33:00,
2013-01-20 00:43:00,38.0,31.0,29.80,SSW,210,0.0,0.0,75,0.00,,,0.01,,2013-01-20 05:43:00,
2013-01-20 00:53:00,38.0,31.0,29.80,SSW,202,0.0,2.0,75,0.00,,,0.01,,2013-01-20 05:53:00,
2013-01-20 01:02:00,39.0,31.0,29.78,SW,218,3.0,11.0,74,0.00,,,0.01,,2013-01-20 06:02:00,
2013-01-20 01:12:00,39.0,31.0,29.78,SW,218,3.0,11.0,74,0.00,,,0.01,,2013-01-20 06:12:00,
2013-01-20 01:22:00,39.0,31.0,29.78,SW,218,3.0,11.0,74,0.00,,,0.01,,2013-01-20 06:22:00,
2013-01-20 01:33:00,40.0,32.0,29.76,SW,227,3.0,9.0,72,0.00,,,0.01,,2013-01-20 06:33:00,
2013-01-20 01:43:00,40.0,32.0,29.76,SW,227,3.0,9.0,72,0.00,,,0.01,,2013-01-20 06:43:00,
2013-01-20 01:53:00,40.0,32.0,29.76,SW,227,5.0,10.0,72,0.00,,,0.01,,2013-01-20 06:53:00,
2013-01-20 02:02:00,40.0,32.0,29.76,SW,227,2.0,9.0,72,0.00,,,0.01,,2013-01-20 07:02:00,
2013-01-20 02:12:00,40.0,32.0,29.76,SW,227,2.0,9.0,72,0.00,,,0.01,,2013-01-20 07:12:00,
2013-01-20 02:22:00,40.0,31.0,29.76,SW,228,3.0,11.0,71,0.00,,,0.01,,2013-01-20 07:22:00,
2013-01-20 02:32:00,40.0,31.0,29.75,SSW,211,0.0,7.0,71,0.00,,,0.01,,2013-01-20 07:32:00,
2013-01-20 02:42:00,40.0,31.0,29.75,SSW,211,0.0,7.0,71,0.00,,,0.01,,2013-01-20 07:42:00,
2013-01-20 02:52:00,40.0,31.0,29.75,SW,227,2.0,7.0,71,0.00,,,0.01,,2013-01-20 07:52:00,
2013-01-20 03:02:00,40.0,31.0,29.73,SW,218,0.0,8.0,70,0.00,,,0.01,,2013-01-20 08:02:00,
2013-01-20 03:12:00,40.0,31.0,29.73,SW,218,0.0,8.0,70,0.00,,,0.01,,2013-01-20 08:12:00,
2013-01-20 03:22:00,40.0,31.0,29.73,SSW,192,0.0,0.0,71,0.00,,,0.01,,2013-01-20 08:22:00,
2013-01-20 03:32:00,40.0,31.0,29.70,SW,219,0.0,0.0,71,0.00,,,0.01,,2013-01-20 08:32:00,
2013-01-20 03:42:00,40.0,31.0,29.70,SW,219,0.0,0.0,71,0.00,,,0.01,,2013-01-20 08:42:00,
2013-01-20 03:52:00,40.0,31.0,29.70,SW,235,1.0,5.0,71,0.00,,,0.01,,2013-01-20 08:52:00,
2013-01-20 04:02:00,40.0,31.0,29.69,SW,227,5.0,8.0,71,0.00,,,0.01,,2013-01-20 09:02:00,
2013-01-20 04:12:00,40.0,31.0,29.69,SW,227,5.0,8.0,71,0.00,,,0.01,,2013-01-20 09:12:00,
2013-01-20 04:22:00,40.0,31.0,29.69,SSW,212,3.0,8.0,70,0.00,,,0.01,,2013-01-20 09:22:00,
2013-01-20 04:33:00,40.0,31.0,29.67,SW,222,2.0,8.0,70,0.00,,,0.01,,2013-01-20 09:33:00,
2013-01-20 04:42:00,40.0,31.0,29.67,SW,222,2.0,8.0,70,0.00,,,0.01,,2013-01-20 09:42:00,
2013-01-20 04:52:00,39.0,30.0,29.67,SW,235,0.0,7.0,70,0.00,,,0.01,,2013-01-20 09:52:00,
2013-01-20 05:03:00,39.0,30.0,29.66,SW,219,0.0,8.0,70,0.00,,,0.01,,2013-01-20 10:03:00,
2013-01-20 05:12:00,39.0,30.0,29.66,SW,219,0.0,8.0,70,0.00,,,0.01,,2013-01-20 10:12:00,
2013-01-20 05:22:00,39.0,30.0,29.66,SW,218,1.0,11.0,71,0.00,,,0.01,,2013-01-20 10:22:00,
2013-01-20 05:32:00,39.0,31.0,29.64,SW,219,2.0,6.0,72,0.00,,,0.01,,2013-01-20 10:32:00,
2013-01-20 05:42:00,39.0,31.0,29.64,SW,219,2.0,6.0,72,0.00,,,0.01,,2013-01-20 10:42:00,
2013-01-20 05:52:00,39.0,31.0,29.64,SW,227,0.0,7.0,72,0.00,,,0.01,,2013-01-20 10:52:00,
2013-01-20 06:03:00,39.0,31.0,29.61,SW,217,3.0,9.0,73,0.00,,,0.01,,2013-01-20 11:03:00,
2013-01-20 06:12:00,39.0,31.0,29.61,SW,217,3.0,9.0,73,0.00,,,0.01,,2013-01-20 11:12:00,
2013-01-20 06:22:00,39.0,31.0,29.61,SSW,212,2.0,12.0,73,0.00,,,0.01,,2013-01-20 11:22:00,
2013-01-20 06:33:00,39.0,31.0,29.59,SW,226,4.0,8.0,73,0.00,,,0.01,,2013-01-20 11:33:00,
2013-01-20 06:43:00,39.0,31.0,29.59,SW,226,4.0,8.0,73,0.00,,,0.01,,2013-01-20 11:43:00,
2013-01-20 06:53:00,39.0,31.0,29.59,SW,220,3.0,8.0,73,0.00,,,0.01,,2013-01-20 11:53:00,
2013-01-20 07:03:00,39.0,31.0,29.58,SW,214,3.0,7.0,73,0.00,,,0.01,,2013-01-20 12:03:00,
2013-01-20 07:12:00,39.0,31.0,29.58,SW,214,3.0,7.0,73,0.00,,,0.01,,2013-01-20 12:12:00,
2013-01-20 07:23:00,39.0,31.0,29.58,WSW,239,2.0,11.0,73,0.00,,,0.01,,2013-01-20 12:23:00,
2013-01-20 07:33:00,39.0,31.0,29.58,SW,227,3.0,10.0,73,0.00,,,0.01,,2013-01-20 12:33:00,
2013-01-20 07:43:00,39.0,31.0,29.58,SW,227,3.0,10.0,73,0.00,,,0.01,,2013-01-20 12:43:00,
2013-01-20 07:52:00,39.0,31.0,29.58,SW,226,5.0,12.0,72,0.00,,,0.01,,2013-01-20 12:52:00,
2013-01-20 08:03:00,39.0,30.0,29.55,SW,230,5.0,12.0,71,0.00,,,0.01,,2013-01-20 13:03:00,
2013-01-20 08:12:00,39.0,30.0,29.55,SW,230,5.0,12.0,71,0.00,,,0.01,,2013-01-20 13:12:00,
2013-01-20 08:23:00,39.0,30.0,29.55,SW,223,3.0,19.0,70,0.00,,,0.01,,2013-01-20 13:23:00,
2013-01-20 08:33:00,40.0,30.0,29.55,SW,236,8.0,15.0,68,0.00,,,0.01,,2013-01-20 13:33:00,
2013-01-20 08:43:00,40.0,30.0,29.55,SW,236,8.0,15.0,68,0.00,,,0.01,,2013-01-20 13:43:00,
2013-01-20 08:52:00,41.0,31.0,29.55,SW,231,8.0,16.0,67,0.00,,,0.01,,2013-01-20 13:52:00,
2013-01-20 09:03:00,42.0,31.0,29.54,SW,233,6.0,21.0,64,0.00,,,0.01,,2013-01-20 14:03:00,
2013-01-20 09:12:00,42.0,31.0,29.54,SW,233,6.0,21.0,64,0.00,,,0.01,,2013-01-20 14:12:00,
2013-01-20 09:23:00,42.0,30.0,29.54,SW,230,7.0,27.0,63,0.00,,,0.01,,2013-01-20 14:23:00,
2013-01-20 09:33:00,43.0,30.0,29.54,SW,226,12.0,22.0,59,0.00,,,0.01,,2013-01-20 14:33:00,
2013-01-20 09:43:00,43.0,30.0,29.54,SW,226,12.0,22.0,59,0.00,,,0.01,,2013-01-20 14:43:00,
2013-01-20 09:53:00,44.0,30.0,29.54,WSW,239,7.0,19.0,58,0.00,,,0.01,,2013-01-20 14:53:00,
2013-01-20 10:03:00,46.0,31.0,29.54,SW,230,12.0,19.0,56,0.00,,,0.01,,2013-01-20 15:03:00,
2013-01-20 10:12:00,46.0,31.0,29.54,SW,230,12.0,19.0,56,0.00,,,0.01,,2013-01-20 15:12:00,
2013-01-20 10:23:00,46.0,30.0,29.54,SW,232,15.0,26.0,53,0.00,,,0.01,,2013-01-20 15:23:00,
2013-01-20 10:33:00,47.0,30.0,29.52,SW,226,10.0,22.0,51,0.00,,,0.01,,2013-01-20 15:33:00,
2013-01-20 10:42:00,47.0,30.0,29.52,SW,226,10.0,22.0,51,0.00,,,0.01,,2013-01-20 15:42:00,
2013-01-20 10:53:00,48.0,30.0,29.52,SW,234,10.0,21.0,50,0.00,,,0.01,,2013-01-20 15:53:00,
2013-01-20 11:03:00,49.0,31.0,29.49,SW,232,9.0,20.0,49,0.00,,,0.01,,2013-01-20 16:03:00,
2013-01-20 11:12:00,49.0,31.0,29.49,SW,232,9.0,20.0,49,0.00,,,0.01,,2013-01-20 16:12:00,
2013-01-20 11:23:00,50.0,30.0,29.49,SW,236,13.0,26.0,46,0.00,,,0.00,,2013-01-20 16:23:00,
2013-01-20 11:33:00,51.0,30.0,29.47,SW,233,12.0,24.0,44,0.00,,,0.00,,2013-01-20 16:33:00,
2013-01-20 11:43:00,51.0,30.0,29.47,SW,233,12.0,24.0,44,0.00,,,0.00,,2013-01-20 16:43:00,
2013-01-20 11:52:00,52.0,31.0,29.47,WSW,238,15.0,27.0,44,0.00,,,0.00,,2013-01-20 16:52:00,
2013-01-20 12:03:00,52.0,30.0,29.46,WSW,250,10.0,28.0,42,0.00,,,0.00,,2013-01-20 17:03:00,
2013-01-20 12:13:00,52.0,30.0,29.46,WSW,250,10.0,28.0,42,0.00,,,0.00,,2013-01-20 17:13:00,
2013-01-20 12:22:00,52.0,30.0,29.46,West,264,11.0,25.0,42,0.00,,,0.00,,2013-01-20 17:22:00,
2013-01-20 12:33:00,52.0,30.0,29.46,West,265,11.0,27.0,42,0.00,,,0.00,,2013-01-20 17:33:00,
2013-01-20 12:42:00,52.0,30.0,29.46,West,265,11.0,27.0,42,0.00,,,0.00,,2013-01-20 17:42:00,
2013-01-20 12:52:00,51.0,29.0,29.46,West,279,11.0,33.0,43,0.00,,,0.00,,2013-01-20 17:52:00,
2013-01-20 13:03:00,50.0,29.0,29.47,West,259,16.0,27.0,45,0.00,,,0.00,,2013-01-20 18:03:00,
2013-01-20 13:13:00,49.0,29.0,29.47,WSW,252,15.0,30.0,46,0.00,,,0.00,,2013-01-20 18:13:00,
2013-01-20 13:23:00,49.0,29.0,29.47,WSW,252,15.0,30.0,46,0.00,,,0.00,,2013-01-20 18:23:00,
2013-01-20 13:33:00,48.0,29.0,29.49,WNW,286,14.0,31.0,48,0.00,,,0.00,,2013-01-20 18:33:00,
2013-01-20 13:43:00,48.0,29.0,29.49,WNW,286,14.0,31.0,48,0.00,,,0.00,,2013-01-20 18:43:00,
2013-01-20 13:53:00,47.0,30.0,29.49,NW,308,15.0,31.0,52,0.00,,,0.00,,2013-01-20 18:53:00,
2013-01-20 14:03:00,45.0,30.0,29.52,WNW,300,11.0,24.0,56,0.00,,,0.00,,2013-01-20 19:03:00,
2013-01-20 14:12:00,45.0,30.0,29.52,WNW,300,11.0,24.0,56,0.00,,,0.00,,2013-01-20 19:12:00,
2013-01-20 14:22:00,44.0,29.0,29.52,West,279,14.0,29.0,56,0.00,,,0.00,,2013-01-20 19:22:00,
2013-01-20 14:33:00,44.0,26.0,29.53,WNW,293,17.0,28.0,49,0.00,,,0.00,,2013-01-20 19:33:00,
2013-01-20 14:43:00,44.0,26.0,29.53,WNW,293,17.0,28.0,49,0.00,,,0.00,,2013-01-20 19:43:00,
2013-01-20 14:52:00,44.0,25.0,29.53,West,271,10.0,27.0,46,0.00,,,0.00,,2013-01-20 19:52:00,
2013-01-20 15:03:00,44.0,24.0,29.54,West,277,12.0,24.0,45,0.00,,,0.00,,2013-01-20 20:03:00,
2013-01-20 15:12:00,44.0,24.0,29.54,West,277,12.0,24.0,45,0.00,,,0.00,,2013-01-20 20:12:00,
2013-01-20 15:23:00,44.0,24.0,29.54,WNW,283,8.0,26.0,45,0.00,,,0.00,,2013-01-20 20:23:00,
2013-01-20 15:33:00,44.0,21.0,29.56,WNW,291,17.0,30.0,40,0.00,,,0.00,,2013-01-20 20:33:00,
2013-01-20 15:42:00,44.0,21.0,29.56,WNW,291,17.0,30.0,40,0.00,,,0.00,,2013-01-20 20:42:00,
2013-01-20 15:53:00,44.0,22.0,29.56,WNW,288,5.0,27.0,42,0.00,,,0.00,,2013-01-20 20:53:00,
2013-01-20 16:04:00,44.0,20.0,29.57,West,280,6.0,25.0,38,0.00,,,0.00,,2013-01-20 21:04:00,
2013-01-20 16:13:00,44.0,20.0,29.57,West,280,6.0,25.0,38,0.00,,,0.00,,2013-01-20 21:13:00,
2013-01-20 16:23:00,44.0,19.0,29.57,WNW,297,9.0,24.0,36,0.00,,,0.00,,2013-01-20 21:23:00,
2013-01-20 16:33:00,43.0,16.0,29.60,WNW,302,8.0,22.0,33,0.00,,,0.00,,2013-01-20 21:33:00,
2013-01-20 16:43:00,43.0,16.0,29.60,WNW,302,8.0,22.0,33,0.00,,,0.00,,2013-01-20 21:43:00,
2013-01-20 16:53:00,42.0,15.0,29.60,NW,310,11.0,22.0,33,0.00,,,0.00,,2013-01-20 21:53:00,
2013-01-20 17:03:00,41.0,15.0,29.63,WNW,296,11.0,27.0,35,0.00,,,0.00,,2013-01-20 22:03:00,
2013-01-20 17:13:00,41.0,15.0,29.63,WNW,296,11.0,27.0,35,0.00,,,0.00,,2013-01-20 22:13:00,
2013-01-20 17:23:00,40.0,16.0,29.63,WNW,295,19.0,34.0,37,0.00,,,0.00,,2013-01-20 22:23:00,
2013-01-20 17:33:00,38.0,17.0,29.66,WNW,298,10.0,27.0,42,0.00,,,0.00,,2013-01-20 22:33:00,
2013-01-20 17:43:00,38.0,17.0,29.66,WNW,298,10.0,27.0,42,0.00,,,0.00,,2013-01-20 22:43:00,
2013-01-20 17:52:00,38.0,18.0,29.66,WNW,292,15.0,25.0,43,0.00,,,0.00,,2013-01-20 22:52:00,
2013-01-20 18:03:00,37.0,17.0,29.69,West,281,12.0,25.0,44,0.00,,,0.00,,2013-01-20 23:03:00,
2013-01-20 18:13:00,37.0,17.0,29.69,West,281,12.0,25.0,44,0.00,,,0.00,,2013-01-20 23:13:00,
2013-01-20 18:23:00,36.0,16.0,29.69,WNW,291,13.0,27.0,44,0.00,,,0.00,,2013-01-20 23:23:00,
2013-01-20 18:33:00,35.0,16.0,29.70,WNW,292,8.0,24.0,45,0.00,,,0.00,,2013-01-20 23:33:00,
2013-01-20 18:43:00,35.0,16.0,29.70,WNW,292,8.0,24.0,45,0.00,,,0.00,,2013-01-20 23:43:00,
2013-01-20 18:53:00,35.0,15.0,29.70,WNW,288,16.0,26.0,43,0.00,,,0.00,,2013-01-20 23:53:00,
2013-01-20 19:03:00,34.0,14.0,29.73,WNW,296,15.0,26.0,44,0.00,,,0.00,,2013-01-21 00:03:00,
2013-01-20 19:13:00,34.0,14.0,29.73,WNW,296,15.0,26.0,44,0.00,,,0.00,,2013-01-21 00:13:00,
2013-01-20 19:23:00,33.0,13.0,29.73,NW,304,18.0,27.0,44,0.00,,,0.00,,2013-01-21 00:23:00,
2013-01-20 19:33:00,33.0,13.0,29.74,WNW,289,16.0,31.0,44,0.00,,,0.00,,2013-01-21 00:33:00,
2013-01-20 19:43:00,33.0,13.0,29.74,WNW,289,16.0,31.0,44,0.00,,,0.00,,2013-01-21 00:43:00,
2013-01-20 19:53:00,32.0,13.0,29.74,WNW,298,18.0,26.0,44,0.00,,,0.00,,2013-01-21 00:53:00,
2013-01-20 20:03:00,31.0,12.0,29.75,WNW,301,13.0,24.0,45,0.00,,,0.00,,2013-01-21 01:03:00,
2013-01-20 20:13:00,31.0,12.0,29.75,WNW,301,13.0,24.0,45,0.00,,,0.00,,2013-01-21 01:13:00,
2013-01-20 20:23:00,31.0,12.0,29.75,WNW,291,16.0,27.0,44,0.00,,,0.00,,2013-01-21 01:23:00,
2013-01-20 20:33:00,31.0,12.0,29.78,WNW,298,12.0,25.0,45,0.00,,,0.00,,2013-01-21 01:33:00,
2013-01-20 20:43:00,31.0,12.0,29.78,WNW,298,12.0,25.0,45,0.00,,,0.00,,2013-01-21 01:43:00,
2013-01-20 20:53:00,30.0,11.0,29.78,WNW,284,9.0,21.0,45,0.00,,,0.00,,2013-01-21 01:53:00,
2013-01-20 21:03:00,30.0,12.0,29.80,WNW,284,7.0,20.0,46,0.00,,,0.00,,2013-01-21 02:03:00,
2013-01-20 21:12:00,30.0,12.0,29.80,WNW,284,7.0,20.0,46,0.00,,,0.00,,2013-01-21 02:12:00,
2013-01-20 21:23:00,30.0,11.0,29.80,WNW,291,10.0,19.0,45,0.00,,,0.00,,2013-01-21 02:23:00,
2013-01-20 21:33:00,29.0,11.0,29.81,WNW,287,7.0,19.0,47,0.00,,,0.00,,2013-01-21 02:33:00,
2013-01-20 21:43:00,29.0,11.0,29.81,WNW,287,7.0,19.0,47,0.00,,,0.00,,2013-01-21 02:43:00,
2013-01-20 21:53:00,29.0,11.0,29.81,WNW,284,12.0,17.0,47,0.00,,,0.00,,2013-01-21 02:53:00,
2013-01-20 22:03:00,29.0,11.0,29.81,WNW,293,12.0,18.0,47,0.00,,,0.00,,2013-01-21 03:03:00,
2013-01-20 22:13:00,29.0,11.0,29.81,WNW,293,12.0,18.0,47,0.00,,,0.00,,2013-01-21 03:13:00,
2013-01-20 22:23:00,29.0,11.0,29.81,WNW,292,11.0,19.0,47,0.00,,,0.00,,2013-01-21 03:23:00,
2013-01-20 22:33:00,29.0,12.0,29.83,WNW,302,9.0,16.0,49,0.00,,,0.00,,2013-01-21 03:33:00,
2013-01-20 22:43:00,29.0,12.0,29.83,WNW,302,9.0,16.0,49,0.00,,,0.00,,2013-01-21 03:43:00,
2013-01-20 22:53:00,29.0,12.0,29.83,WNW,291,9.0,18.0,49,0.00,,,0.00,,2013-01-21 03:53:00,
2013-01-20 23:03:00,28.0,11.0,29.84,WNW,299,10.0,17.0,49,0.00,,,0.00,,2013-01-21 04:03:00,
2013-01-20 23:13:00,28.0,11.0,29.84,WNW,299,10.0,17.0,49,0.00,,,0.00,,2013-01-21 04:13:00,
2013-01-20 23:23:00,28.0,11.0,29.84,WNW,299,10.0,17.0,49,0.00,,,0.00,,2013-01-21 04:23:00,
2013-01-20 23:33:00,28.0,12.0,29.85,WNW,295,6.0,16.0,50,0.00,,,0.00,,2013-01-21 04:33:00,
2013-01-20 23:43:00,28.0,12.0,29.85,WNW,295,6.0,16.0,50,0.00,,,0.00,,2013-01-21 04:43:00,
2013-01-20 23:53:00,28.0,12.0,29.85,WNW,285,3.0,11.0,51,0.00,,,0.00,,2013-01-21 04:53:00,